Location: Be?i?
(36.9044°N, 30.1006°E)
Time: 13:10:43
(UTC+00:00)

Cosmos 1420 Rocket - Pass Details

Date: 05 August 2024
Orbit: 753 x 777 km, 74.0° (Epoch: 09 September)

Event Time Altitude Azimuth Distance (km) Brightness Sun altitude
Rises 18:10:02 0° 197° (SSW) 3,236 7.1 -12.9°
Reaches altitude 10° 18:12:24 10° 198° (SSW) 2,310 6.3 -13.3°
Maximum altitude 18:17:40 86° 288° (WNW) 776 4.0 -14.2°
Drops below altitude 10° 18:22:55 10° 17° (NNE) 2,309 6.7 -15.1°
Sets 18:25:18 0° 18° (NNE) 3,235 7.5 -15.4°
